Tracking 19795 objects as of 20-Jul-2019
HD Live streaming from Space Station
objects crossing your sky now

BREEZE-M DEB

Track BREEZE-M DEB now!


NORAD ID: 43414
Int'l Code: 2014-007D
Perigee: 8,155.8 km
Apogee: 34,288.7 km
Inclination: 13.6 °
Period: 760.3 minutes
Semi major axis: 27593 km
RCS: Unknown
Launch date: February 14, 2014
Source: Commonwealth of Independent States (former USSR) (CIS)
Launch site: TYURATAM MISSILE AND SPACE COMPLEX (TTMTR)

Note: This is SATELLITE DEBRIS
aabbcc
Your satellite tracking list
Your tracking list is empty




NASA's NSSDC Master Catalog

Two Line Element Set (TLE):
1 43414U 14007D   19200.48974097 -.00000129 +00000-0 +00000-0 0  9991
2 43414 013.5529 284.6823 4735395 007.9726 357.5342 01.89408235032928
Source of the keplerian elements: AFSPC